Hovedside
METAR-TAF:

METAR-TAF

Lufthavner :

Pajala lufthavn

Pajala, Sverige

breddegrad: 67-14-44N, lengdegrad: 023-04-08E, høyde over havet: 165 m

Gjeldene værobservasjon

Denne rapporten ble laget for 26 minutter siden, klokken 18:20 UTC
Vind 2 kt fra skiftende retning
Temperatur -9°C
Luftfuktighet 92%
Trykk 1025 hPa
Sikt 10 km eller mer

METAR: ESUP 191820Z AUTO VRB02KT 9999 NCD M09/M10 Q1025

Tid: 19:46 (18:46 UTC)


TAF: fraværende

Værobservasjoner og værvarsel for over 4000 flyplasser (METAR- og TAF-rapporter).

Tilgjengelige stasjoner er representert av de røde og gule prikkene på kartet.

Hold musepekeren over prikken for å se navnet på stasjonen.

Klikk så for å se værobservasjoner og -varsler.

For å forandre kartet kan du klikke på den grønne knappen med svart kryss for å zoome inn, på den grønne knappen med strek for å zoome ut, eller på de grønne pilene for å se tilstøtende kart.


METAR-TAF: